Sidney-Richland, MT

12:28 PM MST on November 23, 2017 (GMT -0700)
Sidney-Richland Municipal

Weather History for KSDY - October, 2012

Change the Weather History Date:

Monday, October 8, 2012

  Actual Average Record
Temperature  
Mean Temperature 47 °F -  
Max Temperature 57 °F 62 °F 85 °F (1980)
Min Temperature 37 °F 34 °F 15 °F (1959)
Degree Days  
Heating Degree Days 18    
Moisture  
Dew Point 34 °F    
Average Humidity 60    
Maximum Humidity 87    
Minimum Humidity 38    
Precipitation  
Precipitation 0.00 in - - ()
Sea Level Pressure  
Sea Level Pressure 29.80 in    
Wind  
Wind Speed 15 mph (NW)    
Max Wind Speed 24 mph    
Max Gust Speed 31 mph    
Visibility 10 miles    
Events      
Averages and records for this station are not official NWS values.
T = Trace of Precipitation, MM = Missing Value Source: NWS Daily Summary

Daily Weather History Graph

Daily Weather History Graph

Search for Another Location

Airport or City:

Trip Planner

Search our weather history database for the weather conditions in past years. The results will help you decide how hot, cold, wet, or windy it might be!

Date:

Astronomy

Oct. 08, 2012 Rise Set
Actual Time 7:06 AM MDT 6:20 PM MDT
Civil Twilight 6:35 AM MDT 6:51 PM MDT
Nautical Twilight 5:59 AM MDT 7:27 PM MDT
Astronomical Twilight 5:23 AM MDT 8:03 PM MDT
Moon No Moon Rise 2:38 PM MDT (10/8)
Length of Visible Light 12h 16m
Length of Day
11h 14m
Last Quarter, 46% of the Moon is Illuminated
Oct 8
Last Quarter
Oct 15
New
Oct 21
First Quarter
Oct 29
Full
Nov 6
Last Quarter

Hourly Weather History & Observations

Time (MDT) Temp. Windchill Dew Point Humidity Pressure Visibility Wind Dir Wind Speed Gust Speed Precip Events Conditions
12:15 AM 57.2 °F - 37.4 °F 48% 29.65 in 10.0 mi West 15.0 mph 19.6 mph N/A   Overcast
12:35 AM 57.2 °F - 37.4 °F 48% 29.66 in 10.0 mi West 13.8 mph - N/A   Overcast
12:55 AM 55.4 °F - 37.4 °F 51% 29.66 in 10.0 mi WNW 16.1 mph 21.9 mph N/A   Mostly Cloudy
1:15 AM 53.6 °F - 37.4 °F 54% 29.67 in 10.0 mi WNW 13.8 mph - N/A   Mostly Cloudy
1:35 AM 53.6 °F - 37.4 °F 54% 29.67 in 10.0 mi WNW 17.3 mph - N/A   Mostly Cloudy
1:55 AM 51.8 °F - 37.4 °F 58% 29.68 in 10.0 mi WNW 15.0 mph - N/A   Mostly Cloudy
2:15 AM 51.8 °F - 37.4 °F 58% 29.69 in 10.0 mi WNW 16.1 mph - N/A   Overcast
2:35 AM 51.8 °F - 39.2 °F 62% 29.69 in 10.0 mi WNW 15.0 mph 20.7 mph N/A   Overcast
2:55 AM 51.8 °F - 39.2 °F 62% 29.69 in 10.0 mi WNW 17.3 mph 21.9 mph N/A   Mostly Cloudy
3:15 AM 51.8 °F - 39.2 °F 62% 29.69 in 10.0 mi WNW 13.8 mph - N/A   Scattered Clouds
3:35 AM 51.8 °F - 39.2 °F 62% 29.70 in 10.0 mi WNW 15.0 mph 19.6 mph N/A   Clear
3:55 AM 51.8 °F - 39.2 °F 62% 29.71 in 10.0 mi WNW 16.1 mph 20.7 mph N/A   Mostly Cloudy
4:15 AM 50.0 °F - 39.2 °F 66% 29.72 in 10.0 mi WNW 13.8 mph - N/A   Overcast
4:35 AM 50.0 °F - 39.2 °F 66% 29.72 in 10.0 mi WNW 16.1 mph 20.7 mph N/A   Scattered Clouds
4:55 AM 50.0 °F - 39.2 °F 66% 29.73 in 10.0 mi WNW 12.7 mph - N/A   Clear
5:15 AM 48.2 °F - 39.2 °F 71% 29.73 in 10.0 mi WNW 13.8 mph - N/A   Scattered Clouds
5:35 AM 48.2 °F - 39.2 °F 71% 29.74 in 10.0 mi WNW 17.3 mph - N/A   Mostly Cloudy
5:55 AM 48.2 °F - 41.0 °F 76% 29.75 in 10.0 mi NW 13.8 mph 20.7 mph N/A   Overcast
6:15 AM 46.4 °F 40.4 °F 42.8 °F 87% 29.76 in 10.0 mi NW 13.8 mph - N/A   Overcast
6:35 AM 46.4 °F 40.7 °F 42.8 °F 87% 29.76 in 10.0 mi NW 12.7 mph - N/A   Overcast
6:55 AM 46.4 °F 41.5 °F 41.0 °F 81% 29.77 in 10.0 mi NW 10.4 mph - N/A   Overcast
7:15 AM 46.4 °F 41.5 °F 39.2 °F 76% 29.77 in 10.0 mi NW 10.4 mph - N/A   Mostly Cloudy
7:35 AM 46.4 °F 42.9 °F 39.2 °F 76% 29.78 in 10.0 mi WNW 6.9 mph - N/A   Mostly Cloudy
7:55 AM 46.4 °F 41.9 °F 41.0 °F 81% 29.78 in 10.0 mi WNW 9.2 mph - N/A   Overcast
8:15 AM 46.4 °F 41.9 °F 42.8 °F 87% 29.78 in 10.0 mi WNW 9.2 mph - N/A   Overcast
8:35 AM 48.2 °F - 42.8 °F 82% 29.79 in 10.0 mi WNW 9.2 mph - N/A   Mostly Cloudy
8:55 AM 46.4 °F 40.4 °F 42.8 °F 87% 29.79 in 10.0 mi NW 13.8 mph - N/A   Overcast
9:35 AM 46.4 °F 39.8 °F 41.0 °F 81% 29.81 in 9.0 mi NNW 16.1 mph 24.2 mph N/A   Overcast
9:55 AM 46.4 °F 40.7 °F 41.0 °F 81% 29.81 in 10.0 mi NNW 12.7 mph 17.3 mph N/A   Mostly Cloudy
10:15 AM 48.2 °F - 39.2 °F 71% 29.81 in 10.0 mi NW 15.0 mph 19.6 mph N/A   Overcast
10:35 AM 48.2 °F - 39.2 °F 71% 29.80 in 10.0 mi NW 13.8 mph 20.7 mph N/A   Mostly Cloudy
10:55 AM 51.8 °F - 39.2 °F 62% 29.80 in 10.0 mi NNW 17.3 mph 21.9 mph N/A   Mostly Cloudy
11:15 AM 50.0 °F - 39.2 °F 66% 29.80 in 10.0 mi NW 16.1 mph 19.6 mph N/A   Overcast
11:35 AM 51.8 °F - 37.4 °F 58% 29.80 in 10.0 mi NNW 21.9 mph 27.6 mph N/A   Mostly Cloudy
11:55 AM 51.8 °F - 33.8 °F 50% 29.80 in 10.0 mi NW 19.6 mph 24.2 mph N/A   Mostly Cloudy
12:15 PM 53.6 °F - 33.8 °F 47% 29.81 in 10.0 mi NW 18.4 mph 25.3 mph N/A   Overcast
12:35 PM 51.8 °F - 33.8 °F 50% 29.81 in 10.0 mi NW 18.4 mph 27.6 mph N/A   Overcast
12:55 PM 51.8 °F - 33.8 °F 50% 29.80 in 10.0 mi NW 19.6 mph 26.5 mph N/A   Overcast
1:15 PM 48.2 °F - 35.6 °F 62% 29.81 in 10.0 mi NW 17.3 mph 28.8 mph N/A   Overcast
1:35 PM 50.0 °F - 35.6 °F 58% 29.80 in 10.0 mi WNW 16.1 mph - N/A   Mostly Cloudy
1:55 PM 50.0 °F - 35.6 °F 58% 29.80 in 10.0 mi WNW 19.6 mph 26.5 mph N/A   Mostly Cloudy
2:15 PM 51.8 °F - 35.6 °F 54% 29.79 in 10.0 mi NW 19.6 mph 25.3 mph N/A   Scattered Clouds
2:35 PM 51.8 °F - 35.6 °F 54% 29.79 in 10.0 mi NW 19.6 mph 26.5 mph N/A   Scattered Clouds
2:55 PM 51.8 °F - 35.6 °F 54% 29.80 in 10.0 mi NW 16.1 mph 21.9 mph N/A   Mostly Cloudy
3:35 PM 51.8 °F - 28.4 °F 41% 29.80 in 10.0 mi NW 20.7 mph 29.9 mph N/A   Partly Cloudy
3:55 PM 51.8 °F - 26.6 °F 38% 29.81 in 10.0 mi WNW 24.2 mph 31.1 mph N/A   Clear
4:15 PM 50.0 °F - 28.4 °F 43% 29.81 in 10.0 mi WNW 20.7 mph 31.1 mph N/A   Scattered Clouds
4:35 PM 48.2 °F - 28.4 °F 46% 29.82 in 10.0 mi NNW 15.0 mph 20.7 mph N/A   Partly Cloudy
4:55 PM 48.2 °F - 26.6 °F 43% 29.82 in 10.0 mi NW 20.7 mph 26.5 mph N/A   Scattered Clouds
5:15 PM 46.4 °F 40.4 °F 26.6 °F 46% 29.83 in 10.0 mi NNW 13.8 mph 25.3 mph N/A   Partly Cloudy
5:35 PM 46.4 °F 39.0 °F 26.6 °F 46% 29.83 in 10.0 mi NW 19.6 mph 25.3 mph N/A   Clear
5:55 PM 46.4 °F 39.5 °F 24.8 °F 43% 29.84 in 10.0 mi NW 17.3 mph 24.2 mph N/A   Clear
6:15 PM 46.4 °F 39.5 °F 24.8 °F 43% 29.84 in 10.0 mi NW 17.3 mph 23.0 mph N/A   Mostly Cloudy
6:35 PM 44.6 °F 37.8 °F 24.8 °F 46% 29.85 in 10.0 mi NW 15.0 mph - N/A   Scattered Clouds
6:55 PM 44.6 °F 38.1 °F 24.8 °F 46% 29.86 in 10.0 mi NW 13.8 mph - N/A   Clear
7:15 PM 44.6 °F 36.9 °F 26.6 °F 49% 29.87 in 10.0 mi NNW 18.4 mph 23.0 mph N/A   Mostly Cloudy
7:35 PM 44.6 °F 36.6 °F 28.4 °F 53% 29.88 in 10.0 mi NW 19.6 mph 26.5 mph N/A   Overcast
8:16 PM 42.8 °F 33.8 °F 26.6 °F 53% 29.89 in 10.0 mi NW 21.9 mph 28.8 mph N/A   Overcast
8:35 PM 42.8 °F 34.5 °F 26.6 °F 53% 29.90 in 10.0 mi NW 18.4 mph 28.8 mph N/A   Overcast
8:55 PM 42.8 °F 35.1 °F 26.6 °F 53% 29.90 in 10.0 mi NW 16.1 mph 23.0 mph N/A   Overcast
9:15 PM 41.0 °F 34.3 °F 24.8 °F 53% 29.91 in 10.0 mi NW 11.5 mph 24.2 mph N/A   Scattered Clouds
9:55 PM 39.2 °F 31.2 °F 24.8 °F 56% 29.92 in 10.0 mi WNW 13.8 mph - N/A   Clear
10:15 PM 39.2 °F 32.0 °F 24.8 °F 56% 29.92 in 10.0 mi WNW 11.5 mph - N/A   Clear
10:35 PM 39.2 °F 32.0 °F 24.8 °F 56% 29.93 in 10.0 mi WNW 11.5 mph 16.1 mph N/A   Clear
10:55 PM 39.2 °F 32.0 °F 24.8 °F 56% 29.92 in 10.0 mi WNW 11.5 mph - N/A   Clear
11:15 PM 39.2 °F 31.6 °F 24.8 °F 56% 29.92 in 10.0 mi NW 12.7 mph - N/A   Clear
11:35 PM 37.4 °F 29.8 °F 24.8 °F 60% 29.93 in 10.0 mi WNW 11.5 mph - N/A   Clear
11:55 PM 37.4 °F 28.5 °F 24.8 °F 60% 29.94 in 10.0 mi WNW 15.0 mph - N/A   Scattered Clouds